Weather History for Grand Forks AFB, ND

Change the Weather History Date:

Wednesday, February 13, 2013

  Actual Average Record
Temperature  
Mean Temperature 22 °F -  
Max Temperature 28 °F 21 °F 48 °F (2002)
Min Temperature 17 °F 3 °F -20 °F (2007)
Degree Days  
Heating Degree Days 42    
Moisture  
Dew Point 18 °F    
Average Humidity 85    
Maximum Humidity 93    
Minimum Humidity 76    
Precipitation  
Precipitation 0.00 in - - ()
Sea Level Pressure  
Sea Level Pressure 29.71 in    
Wind  
Wind Speed 6 mph (NW)    
Max Wind Speed 9 mph    
Max Gust Speed -    
Visibility 10 miles    
Events Snow    
Averages and records for this station are not official NWS values.
T = Trace of Precipitation, MM = Missing Value Source: NWS Daily Summary

Daily Weather History Graph

Daily Weather History Graph

Search for Another Location

Airport:

Trip Planner

Search our weather history database for the weather conditions in past years. The results will help you decide how hot, cold, wet, or windy it might be!

Date:

Astronomy

Feb. 13, 2013 Rise Set
Actual Time 7:38 AM CST 5:49 PM CST
Civil Twilight 7:06 AM CST 6:21 PM CST
Nautical Twilight 6:30 AM CST 6:58 PM CST
Astronomical Twilight 5:54 AM CST 7:34 PM CST
Moon 8:48 AM CST (2/13) 10:17 PM CST (2/13)
Length of Visible Light 11h 15m
Length of Day
10h 10m
Waxing Crescent, 14% of the Moon is Illuminated
Feb 13
Waxing Crescent
Feb 17
First Quarter
Feb 25
Full
Mar 4
Last Quarter
Mar 11
New

Hourly Weather History & Observations

Time (CST) Temp. Windchill Dew Point Humidity Pressure Visibility Wind Dir Wind Speed Gust Speed Precip Events Conditions
12:55 AM 28.0 °F 19.3 °F 22.1 °F 78% 29.73 in 10.0 mi West 9.2 mph - N/A   Clear
1:55 AM 28.2 °F 19.5 °F 21.9 °F 77% 29.73 in 10.0 mi WNW 9.2 mph - N/A   Clear
2:55 AM 23.0 °F 13.9 °F 18.5 °F 83% 29.72 in 10.0 mi WNW 8.1 mph - N/A   Clear
3:55 AM 21.0 °F 10.6 °F 16.9 °F 84% 29.70 in 10.0 mi West 9.2 mph - N/A   Clear
4:04 AM 21.2 °F 13.6 °F 17.6 °F 86% 29.70 in 10.0 mi WNW 5.8 mph - N/A Snow Light Snow
4:27 AM 21.2 °F 13.6 °F 17.6 °F 86% 29.70 in 10.0 mi WNW 5.8 mph - N/A   Clear
4:55 AM 20.1 °F 13.6 °F 16.7 °F 87% 29.70 in 10.0 mi West 4.6 mph - 0.00 in   Clear
5:55 AM 17.8 °F 10.9 °F 15.1 °F 89% 29.70 in 10.0 mi WNW 4.6 mph - N/A   Scattered Clouds
6:29 AM 17.6 °F 9.3 °F 15.8 °F 93% 29.69 in 10.0 mi WNW 5.8 mph - N/A Snow Light Snow
6:55 AM 17.4 °F 10.4 °F 14.2 °F 87% 29.68 in 10.0 mi NW 4.6 mph - 0.00 in Snow Light Snow
6:58 AM 17.6 °F 10.7 °F 14.0 °F 86% 29.68 in 10.0 mi WNW 4.6 mph - N/A   Clear
7:47 AM 17.6 °F 12.3 °F 15.8 °F 93% 29.67 in 10.0 mi West 3.5 mph - N/A Snow Light Snow
7:55 AM 18.0 °F 11.1 °F 14.7 °F 87% 29.68 in 10.0 mi WNW 4.6 mph - 0.00 in Snow Light Snow
7:58 AM 17.6 °F 12.3 °F 15.8 °F 93% 29.68 in 10.0 mi West 3.5 mph - N/A   Clear
8:28 AM 19.4 °F 10.4 °F 15.8 °F 86% 29.68 in 10.0 mi WNW 6.9 mph - N/A Snow Light Snow
8:42 AM 19.4 °F - 15.8 °F 86% 29.67 in 10.0 mi Calm Calm - N/A   Clear
8:55 AM 19.6 °F 14.5 °F 15.8 °F 85% 29.68 in 10.0 mi WNW 3.5 mph - 0.00 in   Clear
8:56 AM 19.4 °F 11.5 °F 15.8 °F 86% 29.68 in 10.0 mi West 5.8 mph - N/A Snow Light Snow
9:24 AM 23.0 °F 15.8 °F 17.6 °F 80% 29.67 in 10.0 mi WNW 5.8 mph - N/A   Clear
9:55 AM 23.9 °F 18.0 °F 18.5 °F 80% 29.66 in 10.0 mi NW 4.6 mph - 0.00 in   Clear
10:55 AM 25.0 °F 20.7 °F 19.4 °F 79% 29.66 in 10.0 mi NNW 3.5 mph - N/A   Scattered Clouds
11:55 AM 26.1 °F - 19.6 °F 76% 29.66 in 10.0 mi Calm Calm - N/A   Mostly Cloudy
12:55 PM 26.6 °F - 19.9 °F 76% 29.65 in 10.0 mi Calm Calm - N/A   Mostly Cloudy
1:55 PM 27.5 °F 22.2 °F 21.0 °F 77% 29.65 in 10.0 mi NNE 4.6 mph - N/A   Overcast
2:55 PM 27.1 °F 19.7 °F 21.2 °F 78% 29.66 in 10.0 mi NNE 6.9 mph - N/A   Overcast
3:55 PM 26.4 °F 18.9 °F 21.4 °F 81% 29.68 in 10.0 mi North 6.9 mph - N/A   Partly Cloudy
4:55 PM 25.9 °F 17.4 °F 21.4 °F 83% 29.69 in 10.0 mi North 8.1 mph - N/A   Scattered Clouds
5:55 PM 24.6 °F 15.8 °F 21.2 °F 87% 29.72 in 10.0 mi North 8.1 mph - N/A   Mostly Cloudy
6:55 PM 20.8 °F 12.1 °F 17.8 °F 88% 29.74 in 10.0 mi North 6.9 mph - N/A   Clear
7:11 PM 19.4 °F 9.5 °F 17.6 °F 93% 29.75 in 10.0 mi NNW 8.1 mph - N/A Snow Light Snow
7:28 PM 17.6 °F 9.3 °F 15.8 °F 93% 29.76 in 10.0 mi NW 5.8 mph - N/A   Clear
7:55 PM 18.9 °F 8.0 °F 16.5 °F 91% 29.77 in 10.0 mi North 9.2 mph - 0.00 in   Partly Cloudy
8:55 PM 18.7 °F 10.6 °F 15.8 °F 89% 29.78 in 10.0 mi NNW 5.8 mph - N/A   Mostly Cloudy
9:55 PM 17.4 °F 8.0 °F 14.7 °F 89% 29.79 in 10.0 mi NNW 6.9 mph - N/A   Mostly Cloudy
10:55 PM 18.5 °F 7.5 °F 15.4 °F 88% 29.81 in 10.0 mi North 9.2 mph - N/A   Overcast
11:55 PM 19.6 °F 8.9 °F 16.5 °F 88% 29.83 in 10.0 mi North 9.2 mph - N/A   Mostly Cloudy